Location: Austin
(30.3000°N, 97.7500°W)
Time: 11:04:45
(UTC-05:00)

RESURS DK-1 - Pass Details

Date: 03 April 2024
Orbit: 545 x 546 km, 69.9° (Epoch: 21 April)

Event Time Altitude Azimuth Distance (km) Brightness Sun altitude
Exits shadow 06:36:29 - 212° (SSW) 2,370 5.1 -9.5°
Reaches altitude 10° 06:37:54 10° 216° (SW) 1,810 4.5 -9.2°
Maximum altitude 06:41:50 51° 293° (WNW) 689 2.5 -8.3°
Drops below altitude 10° 06:45:48 10° 10° (N) 1,819 5.3 -7.5°
Sets 06:48:02 0° 15° (NNE) 2,715 6.2 -7.0°
